Simultaneous Nadir Overpasses (SNOs) Predictions

Prediction of SNOs between AQUA and GOES-15 Satellite Orbit:

Table of predicted SNOs for the next 14.0 days since TLE Epoch: 7/31/2012
Index Date Time (AQUA) AQUA Lat,Lon GOES-15 Lat,Lon Distance(km) Time Diff (sec)
1 07/31/2012 22:29:03 0.72,-133.52 0.36,-135.21 192.85 80
2 08/01/2012 10:50:17 0.37,-138.67 -0.37,-135.21 393.98 80
3 08/03/2012 10:38:04 -0.23,-135.70 -0.37,-135.17 61.94 80
4 08/05/2012 10:25:51 -0.90,-132.75 -0.37,-135.12 270.14 80
5 08/05/2012 22:47:13 -0.25,-137.93 0.38,-135.10 322.47 80
6 08/07/2012 22:34:59 0.38,-134.97 0.38,-135.05 9.40 80
7 08/09/2012 22:22:46 1.01,-132.00 0.38,-134.99 339.94 80
8 08/10/2012 10:44:00 0.07,-137.16 -0.39,-134.99 246.90 80
9 08/12/2012 10:31:45 -0.52,-134.19 -0.40,-134.92 83.24 80




NCC Satellite Simultaneous Nadir Overpasses (SNOs) Prediction Service
